Time,TemperatureF,DewpointF,PressureIn,WindDirection,WindDirectionDegrees,WindSpeedMPH,WindSpeedGustMPH,Humidity,HourlyPrecipIn,Conditions,Clouds,dailyrainin,SolarRadiationWatts/m^2,SoftwareType,DateUTC
2013-01-20 00:03:00,3.1,-2.7,30.35,NW,305,20.0,28.0,76,0.00,,---,0.00,0.00,VWS V14.01,2013-01-20 06:03:00,
2013-01-20 00:08:00,2.9,-2.9,30.35,NW,308,28.0,28.0,76,0.00,,---,0.00,0.00,VWS V14.01,2013-01-20 06:08:00,
2013-01-20 00:13:00,2.8,-3.0,30.35,NW,313,19.0,28.0,76,0.00,,---,0.00,0.00,VWS V14.01,2013-01-20 06:13:00,
2013-01-20 00:18:00,2.8,-3.0,30.35,NW,304,14.0,28.0,76,0.00,,---,0.00,0.00,VWS V14.01,2013-01-20 06:18:00,
2013-01-20 00:23:00,2.8,-2.8,30.35,NW,319,19.0,21.0,77,0.00,,---,0.00,0.00,VWS V14.01,2013-01-20 06:23:00,
2013-01-20 00:28:00,2.7,-2.9,30.35,NW,318,21.0,21.0,77,0.00,,---,0.00,0.00,VWS V14.01,2013-01-20 06:28:00,
2013-01-20 00:33:00,2.7,-2.6,30.35,NW,321,12.0,23.0,78,0.00,,---,0.00,0.00,VWS V14.01,2013-01-20 06:33:00,
2013-01-20 00:38:00,2.6,-3.0,30.35,NW,313,23.0,25.0,77,0.00,,---,0.00,0.00,VWS V14.01,2013-01-20 06:38:00,
2013-01-20 00:43:00,2.4,-3.4,30.35,NW,323,17.0,25.0,76,0.00,,---,0.00,0.00,VWS V14.01,2013-01-20 06:43:00,
2013-01-20 00:48:00,2.3,-3.8,30.36,NW,314,18.0,25.0,75,0.00,,---,0.00,0.00,VWS V14.01,2013-01-20 06:48:00,
2013-01-20 00:53:00,2.3,-3.8,30.36,NW,315,16.0,24.0,75,0.00,,---,0.00,0.00,VWS V14.01,2013-01-20 06:53:00,
2013-01-20 00:58:00,2.3,-3.8,30.36,NW,325,12.0,25.0,75,0.00,,---,0.00,0.00,VWS V14.01,2013-01-20 06:58:00,
2013-01-20 01:03:00,2.3,-3.5,30.37,NW,314,17.0,25.0,76,0.00,,---,0.00,0.00,VWS V14.01,2013-01-20 07:03:00,
2013-01-20 01:08:00,2.2,-3.6,30.37,NW,313,22.0,25.0,76,0.00,,---,0.00,0.00,VWS V14.01,2013-01-20 07:08:00,
2013-01-20 01:13:00,2.2,-3.6,30.37,NW,304,14.0,25.0,76,0.00,,---,0.00,0.00,VWS V14.01,2013-01-20 07:13:00,
2013-01-20 01:18:00,2.1,-3.7,30.37,WNW,298,18.0,25.0,76,0.00,,---,0.00,0.00,VWS V14.01,2013-01-20 07:18:00,
2013-01-20 01:23:00,1.9,-3.9,30.37,WNW,302,16.0,23.0,76,0.00,,---,0.00,0.00,VWS V14.01,2013-01-20 07:23:00,
2013-01-20 01:28:00,1.9,-3.9,30.38,NW,313,19.0,23.0,76,0.00,,---,0.00,0.00,VWS V14.01,2013-01-20 07:28:00,
2013-01-20 01:33:00,1.9,-3.9,30.38,NW,308,13.0,23.0,76,0.00,,---,0.00,0.00,VWS V14.01,2013-01-20 07:33:00,
2013-01-20 01:38:00,1.9,-3.6,30.38,NW,309,16.0,21.0,77,0.00,,---,0.00,0.00,VWS V14.01,2013-01-20 07:38:00,
2013-01-20 01:43:00,1.8,-4.0,30.38,NW,312,17.0,22.0,76,0.00,,---,0.00,0.00,VWS V14.01,2013-01-20 07:43:00,
2013-01-20 01:48:00,1.8,-4.0,30.39,NW,316,11.0,22.0,76,0.00,,---,0.00,0.00,VWS V14.01,2013-01-20 07:48:00,
2013-01-20 01:53:00,1.7,-4.1,30.39,WNW,299,18.0,19.0,76,0.00,,---,0.00,0.00,VWS V14.01,2013-01-20 07:53:00,
2013-01-20 01:58:00,1.7,-4.1,30.39,WNW,298,18.0,22.0,76,0.00,,---,0.00,0.00,VWS V14.01,2013-01-20 07:58:00,
2013-01-20 02:03:00,1.6,-4.2,30.40,WNW,302,15.0,22.0,76,0.00,,---,0.00,0.00,VWS V14.01,2013-01-20 08:03:00,
2013-01-20 02:08:00,1.5,-4.3,30.40,WNW,286,13.0,20.0,76,0.00,,---,0.00,0.00,VWS V14.01,2013-01-20 08:08:00,
2013-01-20 02:13:00,1.4,-4.4,30.40,WNW,300,21.0,21.0,76,0.00,,---,0.00,0.00,VWS V14.01,2013-01-20 08:13:00,
2013-01-20 02:18:00,1.2,-4.9,30.40,NW,317,21.0,23.0,75,0.00,,---,0.00,0.00,VWS V14.01,2013-01-20 08:18:00,
2013-01-20 02:23:00,1.1,-5.0,30.41,WNW,300,15.0,23.0,75,0.00,,---,0.00,0.00,VWS V14.01,2013-01-20 08:23:00,
2013-01-20 02:28:00,1.2,-4.6,30.41,WNW,299,16.0,23.0,76,0.00,,---,0.00,0.00,VWS V14.01,2013-01-20 08:28:00,
2013-01-20 02:33:00,1.2,-4.6,30.41,WNW,298,13.0,23.0,76,0.00,,---,0.00,0.00,VWS V14.01,2013-01-20 08:33:00,
2013-01-20 02:38:00,1.2,-4.6,30.41,NW,304,13.0,18.0,76,0.00,,---,0.00,0.00,VWS V14.01,2013-01-20 08:38:00,
2013-01-20 02:43:00,1.2,-4.3,30.41,NW,310,15.0,18.0,77,0.00,,---,0.00,0.00,VWS V14.01,2013-01-20 08:43:00,
2013-01-20 02:48:00,1.1,-4.4,30.41,WNW,299,20.0,23.0,77,0.00,,---,0.00,0.00,VWS V14.01,2013-01-20 08:48:00,
2013-01-20 02:53:00,1.1,-4.4,30.41,WNW,295,19.0,22.0,77,0.00,,---,0.00,0.00,VWS V14.01,2013-01-20 08:53:00,
2013-01-20 02:58:00,1.0,-4.8,30.41,WNW,296,18.0,22.0,76,0.00,,---,0.00,0.00,VWS V14.01,2013-01-20 08:58:00,
2013-01-20 03:03:00,0.9,-4.9,30.42,NW,304,11.0,22.0,76,0.00,,---,0.00,0.00,VWS V14.01,2013-01-20 09:03:00,
2013-01-20 03:08:00,0.9,-4.9,30.42,WNW,286,14.0,18.0,76,0.00,,---,0.00,0.00,VWS V14.01,2013-01-20 09:08:00,
2013-01-20 03:13:00,0.9,-4.9,30.42,WNW,302,17.0,20.0,76,0.00,,---,0.00,0.00,VWS V14.01,2013-01-20 09:13:00,
2013-01-20 03:18:00,0.8,-5.0,30.42,WNW,303,17.0,21.0,76,0.00,,---,0.00,0.00,VWS V14.01,2013-01-20 09:18:00,
2013-01-20 03:23:00,0.7,-5.1,30.42,NW,313,18.0,21.0,76,0.00,,---,0.00,0.00,VWS V14.01,2013-01-20 09:23:00,
2013-01-20 03:28:00,0.6,-5.2,30.42,NW,306,15.0,21.0,76,0.00,,---,0.00,0.00,VWS V14.01,2013-01-20 09:28:00,
2013-01-20 03:33:00,0.7,-5.1,30.41,NW,311,16.0,21.0,76,0.00,,---,0.00,0.00,VWS V14.01,2013-01-20 09:33:00,
2013-01-20 03:38:00,0.6,-5.2,30.41,NW,309,13.0,19.0,76,0.00,,---,0.00,0.00,VWS V14.01,2013-01-20 09:38:00,
2013-01-20 03:43:00,0.6,-5.2,30.41,NW,306,15.0,20.0,76,0.00,,---,0.00,0.00,VWS V14.01,2013-01-20 09:43:00,
2013-01-20 03:48:00,0.5,-5.3,30.41,NW,313,13.0,20.0,76,0.00,,---,0.00,0.00,VWS V14.01,2013-01-20 09:48:00,
2013-01-20 03:53:00,0.5,-5.3,30.41,NW,314,17.0,19.0,76,0.00,,---,0.00,0.00,VWS V14.01,2013-01-20 09:53:00,
2013-01-20 03:58:00,0.5,-5.3,30.41,NW,313,14.0,19.0,76,0.00,,---,0.00,0.00,VWS V14.01,2013-01-20 09:58:00,
2013-01-20 04:03:00,0.5,-5.3,30.41,NW,306,15.0,19.0,76,0.00,,---,0.00,0.00,VWS V14.01,2013-01-20 10:03:00,
2013-01-20 04:08:00,0.4,-5.4,30.41,NW,304,13.0,17.0,76,0.00,,---,0.00,0.00,VWS V14.01,2013-01-20 10:08:00,
2013-01-20 04:13:00,0.4,-5.4,30.41,NW,307,11.0,18.0,76,0.00,,---,0.00,0.00,VWS V14.01,2013-01-20 10:13:00,
2013-01-20 04:18:00,0.4,-5.4,30.41,NW,309,10.0,10.0,76,0.00,,---,0.00,0.00,VWS V14.01,2013-01-20 10:18:00,
2013-01-20 04:23:00,0.5,-5.0,30.40,NW,304,13.0,13.0,77,0.00,,---,0.00,0.00,VWS V14.01,2013-01-20 10:23:00,
2013-01-20 04:28:00,0.6,-4.9,30.40,NW,310,7.0,13.0,77,0.00,,---,0.00,0.00,VWS V14.01,2013-01-20 10:28:00,
2013-01-20 04:33:00,0.6,-4.9,30.40,NW,326,7.0,7.0,77,0.00,,---,0.00,0.00,VWS V14.01,2013-01-20 10:33:00,
2013-01-20 04:38:00,0.7,-4.8,30.40,NW,319,9.0,12.0,77,0.00,,---,0.00,0.00,VWS V14.01,2013-01-20 10:38:00,
2013-01-20 04:43:00,0.6,-4.9,30.40,NW,313,9.0,13.0,77,0.00,,---,0.00,0.00,VWS V14.01,2013-01-20 10:43:00,
2013-01-20 04:48:00,0.7,-4.8,30.40,NW,306,8.0,11.0,77,0.00,,---,0.00,0.00,VWS V14.01,2013-01-20 10:48:00,
2013-01-20 04:53:00,0.7,-4.8,30.40,WNW,303,13.0,13.0,77,0.00,,---,0.00,0.00,VWS V14.01,2013-01-20 10:53:00,
2013-01-20 04:58:00,0.8,-4.7,30.40,NW,309,13.0,15.0,77,0.00,,---,0.00,0.00,VWS V14.01,2013-01-20 10:58:00,
2013-01-20 05:03:00,0.9,-4.6,30.40,NW,318,13.0,15.0,77,0.00,,---,0.00,0.00,VWS V14.01,2013-01-20 11:03:00,
2013-01-20 05:08:00,0.9,-4.9,30.40,NW,318,10.0,15.0,76,0.00,,---,0.00,0.00,VWS V14.01,2013-01-20 11:08:00,
2013-01-20 05:13:00,1.0,-4.8,30.41,NW,309,10.0,15.0,76,0.00,,---,0.00,0.00,VWS V14.01,2013-01-20 11:13:00,
2013-01-20 05:18:00,0.9,-4.9,30.41,NW,307,17.0,18.0,76,0.00,,---,0.00,0.00,VWS V14.01,2013-01-20 11:18:00,
2013-01-20 05:23:00,0.8,-5.2,30.41,NW,318,10.0,18.0,75,0.00,,---,0.00,0.00,VWS V14.01,2013-01-20 11:23:00,
2013-01-20 05:28:00,0.8,-5.0,30.41,WNW,301,12.0,18.0,76,0.00,,---,0.00,0.00,VWS V14.01,2013-01-20 11:28:00,
2013-01-20 05:33:00,0.9,-4.9,30.41,NW,313,13.0,18.0,76,0.00,,---,0.00,0.00,VWS V14.01,2013-01-20 11:33:00,
2013-01-20 05:38:00,0.9,-4.9,30.41,WNW,303,10.0,19.0,76,0.00,,---,0.00,0.00,VWS V14.01,2013-01-20 11:38:00,
2013-01-20 05:43:00,0.9,-4.9,30.42,NW,311,14.0,19.0,76,0.00,,---,0.00,0.00,VWS V14.01,2013-01-20 11:43:00,
2013-01-20 05:48:00,1.0,-4.8,30.42,NW,315,15.0,19.0,76,0.00,,---,0.00,0.00,VWS V14.01,2013-01-20 11:48:00,
2013-01-20 05:53:00,1.0,-5.1,30.42,NW,323,15.0,18.0,75,0.00,,---,0.00,0.00,VWS V14.01,2013-01-20 11:53:00,
2013-01-20 05:58:00,1.1,-5.0,30.41,NW,311,11.0,18.0,75,0.00,,---,0.00,0.00,VWS V14.01,2013-01-20 11:58:00,
2013-01-20 06:03:00,1.1,-5.0,30.42,WNW,303,13.0,18.0,75,0.00,,---,0.00,0.00,VWS V14.01,2013-01-20 12:03:00,
2013-01-20 06:08:00,1.2,-4.9,30.42,NW,317,13.0,13.0,75,0.00,,---,0.00,0.00,VWS V14.01,2013-01-20 12:08:00,
2013-01-20 06:13:00,1.3,-4.8,30.42,NW,322,11.0,14.0,75,0.00,,---,0.00,0.00,VWS V14.01,2013-01-20 12:13:00,
2013-01-20 06:18:00,1.3,-4.5,30.42,NW,315,11.0,15.0,76,0.00,,---,0.00,0.00,VWS V14.01,2013-01-20 12:18:00,
2013-01-20 06:23:00,1.3,-4.8,30.41,NW,317,8.0,14.0,75,0.00,,---,0.00,0.00,VWS V14.01,2013-01-20 12:23:00,
2013-01-20 06:28:00,1.3,-4.5,30.41,NNW,327,10.0,14.0,76,0.00,,---,0.00,0.00,VWS V14.01,2013-01-20 12:28:00,
2013-01-20 06:33:00,1.3,-4.8,30.40,NW,323,12.0,14.0,75,0.00,,---,0.00,0.00,VWS V14.01,2013-01-20 12:33:00,
2013-01-20 06:38:00,1.3,-4.8,30.40,NNW,327,9.0,13.0,75,0.00,,---,0.00,0.00,VWS V14.01,2013-01-20 12:38:00,
2013-01-20 06:43:00,1.2,-4.9,30.40,NW,309,9.0,13.0,75,0.00,,---,0.00,0.00,VWS V14.01,2013-01-20 12:43:00,
2013-01-20 06:48:00,1.3,-4.8,30.41,NW,321,9.0,13.0,75,0.00,,---,0.00,0.00,VWS V14.01,2013-01-20 12:48:00,
2013-01-20 06:53:00,1.3,-4.8,30.41,NW,319,9.0,12.0,75,0.00,,---,0.00,0.00,VWS V14.01,2013-01-20 12:53:00,
2013-01-20 06:58:00,1.4,-4.7,30.42,NNW,333,9.0,14.0,75,0.00,,---,0.00,0.00,VWS V14.01,2013-01-20 12:58:00,
2013-01-20 07:03:00,1.5,-4.6,30.43,NW,308,11.0,14.0,75,0.00,,---,0.00,0.00,VWS V14.01,2013-01-20 13:03:00,
2013-01-20 07:08:00,1.5,-4.6,30.43,NW,308,9.0,14.0,75,0.00,,---,0.00,0.00,VWS V14.01,2013-01-20 13:08:00,
2013-01-20 07:13:00,1.5,-4.6,30.43,WNW,292,9.0,14.0,75,0.00,,---,0.00,0.00,VWS V14.01,2013-01-20 13:13:00,
2013-01-20 07:18:00,1.5,-4.8,30.43,WNW,298,7.0,14.0,74,0.00,,---,0.00,0.00,VWS V14.01,2013-01-20 13:18:00,
2013-01-20 07:23:00,1.5,-4.8,30.43,WNW,299,7.0,11.0,74,0.00,,---,0.00,0.00,VWS V14.01,2013-01-20 13:23:00,
2013-01-20 07:28:00,1.5,-4.8,30.43,NW,311,11.0,12.0,74,0.00,,---,0.00,0.00,VWS V14.01,2013-01-20 13:28:00,
2013-01-20 07:33:00,1.5,-4.8,30.44,West,279,10.0,12.0,74,0.00,,---,0.00,0.00,VWS V14.01,2013-01-20 13:33:00,
2013-01-20 07:38:00,1.6,-4.8,30.43,West,276,10.0,13.0,74,0.00,,---,0.00,0.00,VWS V14.01,2013-01-20 13:38:00,
2013-01-20 07:43:00,1.7,-4.7,30.43,WNW,297,9.0,13.0,74,0.00,,---,0.00,0.00,VWS V14.01,2013-01-20 13:43:00,
2013-01-20 07:48:00,1.8,-4.6,30.43,WNW,286,11.0,13.0,74,0.00,,---,0.00,0.00,VWS V14.01,2013-01-20 13:48:00,
2013-01-20 07:53:00,1.7,-4.7,30.43,WNW,298,12.0,13.0,74,0.00,,---,0.00,0.00,VWS V14.01,2013-01-20 13:53:00,
2013-01-20 07:58:00,1.8,-4.6,30.43,NW,311,11.0,13.0,74,0.00,,---,0.00,0.00,VWS V14.01,2013-01-20 13:58:00,
2013-01-20 08:03:00,1.9,-4.2,30.44,WNW,299,9.0,10.0,75,0.00,,---,0.00,7.00,VWS V14.01,2013-01-20 14:03:00,
2013-01-20 08:08:00,2.0,-4.1,30.44,WNW,301,13.0,14.0,75,0.00,,---,0.00,12.00,VWS V14.01,2013-01-20 14:08:00,
2013-01-20 08:13:00,2.2,-3.9,30.45,WNW,282,10.0,15.0,75,0.00,,---,0.00,25.00,VWS V14.01,2013-01-20 14:13:00,
2013-01-20 08:18:00,2.2,-3.9,30.45,WNW,292,10.0,10.0,75,0.00,,---,0.00,18.00,VWS V14.01,2013-01-20 14:18:00,
2013-01-20 08:23:00,2.3,-3.8,30.45,West,279,10.0,14.0,75,0.00,,---,0.00,18.00,VWS V14.01,2013-01-20 14:23:00,
2013-01-20 08:28:00,2.3,-3.8,30.46,WNW,296,12.0,14.0,75,0.00,,---,0.00,16.00,VWS V14.01,2013-01-20 14:28:00,
2013-01-20 08:33:00,2.3,-3.5,30.46,WNW,294,12.0,13.0,76,0.00,,---,0.00,26.00,VWS V14.01,2013-01-20 14:33:00,
2013-01-20 08:38:00,2.3,-3.5,30.46,WNW,301,12.0,15.0,76,0.00,,---,0.00,28.00,VWS V14.01,2013-01-20 14:38:00,
2013-01-20 08:43:00,2.4,-3.4,30.46,WNW,301,12.0,16.0,76,0.00,,---,0.00,37.00,VWS V14.01,2013-01-20 14:43:00,
2013-01-20 08:48:00,2.4,-3.2,30.46,WNW,293,11.0,14.0,77,0.00,,---,0.00,28.00,VWS V14.01,2013-01-20 14:48:00,
2013-01-20 08:53:00,2.4,-2.9,30.46,WNW,291,12.0,17.0,78,0.00,,---,0.00,30.00,VWS V14.01,2013-01-20 14:53:00,
2013-01-20 08:58:00,2.5,-2.5,30.47,WNW,290,12.0,17.0,79,0.00,,---,0.00,46.00,VWS V14.01,2013-01-20 14:58:00,
2013-01-20 09:03:00,2.4,-2.6,30.47,WNW,300,8.0,8.0,79,0.00,,---,0.00,47.00,VWS V14.01,2013-01-20 15:03:00,
2013-01-20 09:08:00,2.5,-2.2,30.47,WNW,298,15.0,16.0,80,0.00,,---,0.00,44.00,VWS V14.01,2013-01-20 15:08:00,
2013-01-20 09:13:00,2.4,-2.3,30.48,WNW,295,15.0,17.0,80,0.00,,---,0.00,62.00,VWS V14.01,2013-01-20 15:13:00,
2013-01-20 09:18:00,2.3,-2.4,30.47,WNW,290,10.0,10.0,80,0.00,,---,0.00,76.00,VWS V14.01,2013-01-20 15:18:00,
2013-01-20 09:23:00,2.5,-2.0,30.48,WNW,302,11.0,14.0,81,0.00,,---,0.00,79.00,VWS V14.01,2013-01-20 15:23:00,
2013-01-20 09:28:00,2.7,-1.8,30.48,WNW,292,9.0,14.0,81,0.00,,---,0.00,104.00,VWS V14.01,2013-01-20 15:28:00,
2013-01-20 09:33:00,2.8,-1.7,30.48,WNW,298,11.0,12.0,81,0.00,,---,0.00,120.00,VWS V14.01,2013-01-20 15:33:00,
2013-01-20 09:38:00,2.9,-1.6,30.48,WNW,298,12.0,16.0,81,0.00,,---,0.00,116.00,VWS V14.01,2013-01-20 15:38:00,
2013-01-20 09:43:00,2.9,-1.6,30.48,NW,308,13.0,16.0,81,0.00,,---,0.00,127.00,VWS V14.01,2013-01-20 15:43:00,
2013-01-20 09:48:00,3.0,-1.8,30.48,NW,309,16.0,16.0,80,0.00,,---,0.00,158.00,VWS V14.01,2013-01-20 15:48:00,
2013-01-20 09:53:00,3.2,-1.6,30.48,WNW,296,15.0,17.0,80,0.00,,---,0.00,230.00,VWS V14.01,2013-01-20 15:53:00,
2013-01-20 09:58:00,3.3,-1.2,30.48,WNW,290,13.0,17.0,81,0.00,,---,0.00,174.00,VWS V14.01,2013-01-20 15:58:00,
2013-01-20 10:03:00,3.5,-1.0,30.48,WNW,299,14.0,14.0,81,0.00,,---,0.00,156.00,VWS V14.01,2013-01-20 16:03:00,
2013-01-20 10:08:00,3.5,-1.0,30.49,WNW,300,11.0,14.0,81,0.00,,---,0.00,153.00,VWS V14.01,2013-01-20 16:08:00,
2013-01-20 10:13:00,3.5,-1.0,30.49,WNW,286,16.0,16.0,81,0.00,,---,0.00,162.00,VWS V14.01,2013-01-20 16:13:00,
2013-01-20 10:18:00,3.7,-0.8,30.49,WNW,301,12.0,12.0,81,0.00,,---,0.00,148.00,VWS V14.01,2013-01-20 16:18:00,
2013-01-20 10:23:00,3.9,-0.6,30.50,NW,324,16.0,17.0,81,0.00,,---,0.00,144.00,VWS V14.01,2013-01-20 16:23:00,
2013-01-20 10:28:00,4.0,-0.5,30.49,NW,320,14.0,18.0,81,0.00,,---,0.00,149.00,VWS V14.01,2013-01-20 16:28:00,
2013-01-20 10:33:00,4.0,-0.8,30.50,WNW,302,13.0,15.0,80,0.00,,---,0.00,149.00,VWS V14.01,2013-01-20 16:33:00,
2013-01-20 10:38:00,4.0,-0.8,30.50,NW,309,14.0,15.0,80,0.00,,---,0.00,155.00,VWS V14.01,2013-01-20 16:38:00,
2013-01-20 10:43:00,4.1,-0.7,30.50,NW,308,15.0,18.0,80,0.00,,---,0.00,211.00,VWS V14.01,2013-01-20 16:43:00,
2013-01-20 10:48:00,4.3,-0.2,30.50,NW,307,13.0,13.0,81,0.00,,---,0.00,202.00,VWS V14.01,2013-01-20 16:48:00,
2013-01-20 10:53:00,4.5,0.0,30.50,NW,321,17.0,17.0,81,0.00,,---,0.00,297.00,VWS V14.01,2013-01-20 16:53:00,
2013-01-20 10:58:00,4.7,0.2,30.50,NW,311,16.0,17.0,81,0.00,,---,0.00,279.00,VWS V14.01,2013-01-20 16:58:00,
2013-01-20 11:03:00,4.7,-0.4,30.51,WNW,303,12.0,15.0,79,0.00,,---,0.00,246.00,VWS V14.01,2013-01-20 17:03:00,
2013-01-20 11:08:00,4.7,-0.1,30.51,WNW,294,15.0,19.0,80,0.00,,---,0.00,236.00,VWS V14.01,2013-01-20 17:08:00,
2013-01-20 11:13:00,4.8,0.0,30.51,NW,309,14.0,19.0,80,0.00,,---,0.00,283.00,VWS V14.01,2013-01-20 17:13:00,
2013-01-20 11:18:00,5.0,0.2,30.51,NW,313,14.0,16.0,80,0.00,,---,0.00,218.00,VWS V14.01,2013-01-20 17:18:00,
2013-01-20 11:23:00,5.3,0.5,30.51,WNW,286,14.0,21.0,80,0.00,,---,0.00,431.00,VWS V14.01,2013-01-20 17:23:00,
2013-01-20 11:28:00,5.3,0.2,30.50,WNW,294,18.0,21.0,79,0.00,,---,0.00,469.00,VWS V14.01,2013-01-20 17:28:00,
2013-01-20 11:33:00,5.4,0.3,30.50,West,278,16.0,20.0,79,0.00,,---,0.00,466.00,VWS V14.01,2013-01-20 17:33:00,
2013-01-20 11:38:00,5.4,0.3,30.49,WNW,303,19.0,20.0,79,0.00,,---,0.00,499.00,VWS V14.01,2013-01-20 17:38:00,
2013-01-20 11:43:00,5.6,0.5,30.50,WNW,301,14.0,20.0,79,0.00,,---,0.00,155.00,VWS V14.01,2013-01-20 17:43:00,
2013-01-20 11:48:00,5.3,-0.1,30.49,West,281,15.0,16.0,78,0.00,,---,0.00,327.00,VWS V14.01,2013-01-20 17:48:00,
2013-01-20 11:53:00,5.4,0.0,30.49,WNW,298,14.0,16.0,78,0.00,,---,0.00,429.00,VWS V14.01,2013-01-20 17:53:00,
2013-01-20 11:58:00,5.5,0.1,30.49,NW,311,13.0,17.0,78,0.00,,---,0.00,355.00,VWS V14.01,2013-01-20 17:58:00,
2013-01-20 12:03:00,5.7,0.1,30.49,WNW,295,15.0,15.0,77,0.00,,---,0.00,425.00,VWS V14.01,2013-01-20 18:03:00,
2013-01-20 12:08:00,6.1,0.7,30.49,WNW,295,13.0,17.0,78,0.00,,---,0.00,355.00,VWS V14.01,2013-01-20 18:08:00,
2013-01-20 12:13:00,6.3,0.6,30.48,WNW,297,14.0,20.0,77,0.00,,---,0.00,320.00,VWS V14.01,2013-01-20 18:13:00,
2013-01-20 12:18:00,6.5,0.8,30.48,NW,306,12.0,15.0,77,0.00,,---,0.00,454.00,VWS V14.01,2013-01-20 18:18:00,
2013-01-20 12:23:00,6.7,0.8,30.47,NW,312,12.0,17.0,76,0.00,,---,0.00,369.00,VWS V14.01,2013-01-20 18:23:00,
2013-01-20 12:28:00,6.7,0.8,30.47,NW,311,12.0,17.0,76,0.00,,---,0.00,439.00,VWS V14.01,2013-01-20 18:28:00,
2013-01-20 12:33:00,7.0,1.0,30.46,WNW,294,12.0,12.0,76,0.00,,---,0.00,327.00,VWS V14.01,2013-01-20 18:33:00,
2013-01-20 12:38:00,7.3,1.3,30.47,WNW,295,12.0,15.0,76,0.00,,---,0.00,304.00,VWS V14.01,2013-01-20 18:38:00,
2013-01-20 12:43:00,7.3,1.3,30.46,WNW,302,20.0,20.0,76,0.00,,---,0.00,253.00,VWS V14.01,2013-01-20 18:43:00,
2013-01-20 12:48:00,7.4,1.4,30.46,WNW,296,15.0,17.0,76,0.00,,---,0.00,162.00,VWS V14.01,2013-01-20 18:48:00,
2013-01-20 12:53:00,7.6,1.6,30.46,NW,317,15.0,21.0,76,0.00,,---,0.00,343.00,VWS V14.01,2013-01-20 18:53:00,
2013-01-20 12:58:00,7.6,1.6,30.46,NW,306,17.0,21.0,76,0.00,,---,0.00,513.00,VWS V14.01,2013-01-20 18:58:00,
2013-01-20 13:03:00,7.7,1.4,30.46,NW,304,15.0,15.0,75,0.00,,---,0.00,494.00,VWS V14.01,2013-01-20 19:03:00,
2013-01-20 13:08:00,7.7,1.4,30.45,WNW,295,13.0,18.0,75,0.00,,---,0.00,476.00,VWS V14.01,2013-01-20 19:08:00,
2013-01-20 13:13:00,8.0,2.0,30.45,NW,309,14.0,19.0,76,0.00,,---,0.00,526.00,VWS V14.01,2013-01-20 19:13:00,
2013-01-20 13:18:00,8.2,1.9,30.45,WNW,286,10.0,13.0,75,0.00,,---,0.00,403.00,VWS V14.01,2013-01-20 19:18:00,
2013-01-20 13:23:00,8.2,1.6,30.45,WNW,303,18.0,20.0,74,0.00,,---,0.00,352.00,VWS V14.01,2013-01-20 19:23:00,
2013-01-20 13:28:00,8.2,1.6,30.45,NW,304,15.0,20.0,74,0.00,,---,0.00,527.00,VWS V14.01,2013-01-20 19:28:00,
2013-01-20 13:34:00,8.5,2.2,30.44,NW,318,12.0,13.0,75,0.00,,---,0.00,513.00,VWS V14.01,2013-01-20 19:34:00,
2013-01-20 13:39:00,8.8,2.2,30.44,WNW,294,14.0,21.0,74,0.00,,---,0.00,503.00,VWS V14.01,2013-01-20 19:39:00,
2013-01-20 13:44:00,8.6,1.7,30.44,NW,318,16.0,21.0,73,0.00,,---,0.00,436.00,VWS V14.01,2013-01-20 19:44:00,
2013-01-20 13:49:00,8.7,2.1,30.44,WNW,302,11.0,17.0,74,0.00,,---,0.00,501.00,VWS V14.01,2013-01-20 19:49:00,
2013-01-20 13:54:00,8.8,2.2,30.44,NW,306,15.0,19.0,74,0.00,,---,0.00,503.00,VWS V14.01,2013-01-20 19:54:00,
2013-01-20 13:59:00,8.9,2.3,30.44,NW,307,16.0,19.0,74,0.00,,---,0.00,469.00,VWS V14.01,2013-01-20 19:59:00,
2013-01-20 14:04:00,8.7,1.8,30.44,WNW,283,15.0,16.0,73,0.00,,---,0.00,211.00,VWS V14.01,2013-01-20 20:04:00,
2013-01-20 14:09:00,8.5,1.9,30.44,WNW,294,14.0,20.0,74,0.00,,---,0.00,211.00,VWS V14.01,2013-01-20 20:09:00,
2013-01-20 14:14:00,8.5,1.9,30.44,WNW,301,15.0,20.0,74,0.00,,---,0.00,457.00,VWS V14.01,2013-01-20 20:14:00,
2013-01-20 14:19:00,8.5,1.6,30.44,WNW,298,12.0,15.0,73,0.00,,---,0.00,443.00,VWS V14.01,2013-01-20 20:19:00,
2013-01-20 14:24:00,8.6,1.7,30.43,NW,307,13.0,18.0,73,0.00,,---,0.00,457.00,VWS V14.01,2013-01-20 20:24:00,
2013-01-20 14:29:00,8.9,2.3,30.43,WNW,286,11.0,18.0,74,0.00,,---,0.00,408.00,VWS V14.01,2013-01-20 20:29:00,
2013-01-20 14:34:00,9.2,2.6,30.44,West,281,10.0,13.0,74,0.00,,---,0.00,404.00,VWS V14.01,2013-01-20 20:34:00,
2013-01-20 14:39:00,9.2,2.6,30.43,WNW,288,13.0,17.0,74,0.00,,---,0.00,390.00,VWS V14.01,2013-01-20 20:39:00,
2013-01-20 14:44:00,9.1,2.2,30.44,WNW,302,13.0,17.0,73,0.00,,---,0.00,188.00,VWS V14.01,2013-01-20 20:44:00,
2013-01-20 14:49:00,8.9,2.3,30.44,WNW,294,11.0,13.0,74,0.00,,---,0.00,102.00,VWS V14.01,2013-01-20 20:49:00,
2013-01-20 14:54:00,9.1,2.8,30.43,NW,304,9.0,17.0,75,0.00,,---,0.00,411.00,VWS V14.01,2013-01-20 20:54:00,
2013-01-20 14:59:00,9.9,3.3,30.43,NW,304,16.0,22.0,74,0.00,,---,0.00,380.00,VWS V14.01,2013-01-20 20:59:00,
2013-01-20 15:04:00,9.9,3.3,30.43,West,269,15.0,19.0,74,0.00,,---,0.00,97.00,VWS V14.01,2013-01-20 21:04:00,
2013-01-20 15:09:00,9.7,2.8,30.43,WNW,287,14.0,19.0,73,0.00,,---,0.00,302.00,VWS V14.01,2013-01-20 21:09:00,
2013-01-20 15:14:00,9.6,3.0,30.43,West,276,10.0,19.0,74,0.00,,---,0.00,167.00,VWS V14.01,2013-01-20 21:14:00,
2013-01-20 15:19:00,9.9,3.6,30.43,WNW,294,12.0,14.0,75,0.00,,---,0.00,123.00,VWS V14.01,2013-01-20 21:19:00,
2013-01-20 15:24:00,9.7,3.4,30.43,WNW,296,16.0,17.0,75,0.00,,---,0.00,105.00,VWS V14.01,2013-01-20 21:24:00,
2013-01-20 15:29:00,9.5,3.5,30.43,WNW,298,13.0,17.0,76,0.00,,---,0.00,90.00,VWS V14.01,2013-01-20 21:29:00,
2013-01-20 15:34:00,9.6,3.8,30.43,WNW,300,12.0,14.0,77,0.00,,---,0.00,111.00,VWS V14.01,2013-01-20 21:34:00,
2013-01-20 15:39:00,9.7,3.4,30.43,WNW,293,10.0,19.0,75,0.00,,---,0.00,102.00,VWS V14.01,2013-01-20 21:39:00,
2013-01-20 15:44:00,9.6,3.0,30.43,WNW,302,15.0,20.0,74,0.00,,---,0.00,95.00,VWS V14.01,2013-01-20 21:44:00,
2013-01-20 15:49:00,9.6,3.0,30.43,WNW,288,14.0,14.0,74,0.00,,---,0.00,105.00,VWS V14.01,2013-01-20 21:49:00,
2013-01-20 15:54:00,9.7,3.4,30.43,WNW,288,20.0,20.0,75,0.00,,---,0.00,79.00,VWS V14.01,2013-01-20 21:54:00,
2013-01-20 15:59:00,9.7,3.1,30.43,WNW,299,18.0,22.0,74,0.00,,---,0.00,63.00,VWS V14.01,2013-01-20 21:59:00,
2013-01-20 16:04:00,9.6,2.7,30.43,WNW,298,20.0,22.0,73,0.00,,---,0.00,47.00,VWS V14.01,2013-01-20 22:04:00,
2013-01-20 16:09:00,9.5,2.9,30.43,NW,306,18.0,22.0,74,0.00,,---,0.00,44.00,VWS V14.01,2013-01-20 22:09:00,
2013-01-20 16:14:00,9.4,3.1,30.43,WNW,290,20.0,23.0,75,0.00,,---,0.00,42.00,VWS V14.01,2013-01-20 22:14:00,
2013-01-20 16:19:00,9.3,2.7,30.43,WNW,296,18.0,19.0,74,0.00,,---,0.00,42.00,VWS V14.01,2013-01-20 22:19:00,
2013-01-20 16:24:00,9.3,3.3,30.43,West,277,15.0,20.0,76,0.00,,---,0.00,23.00,VWS V14.01,2013-01-20 22:24:00,
2013-01-20 16:29:00,9.2,3.7,30.43,WNW,299,19.0,21.0,78,0.00,,---,0.00,33.00,VWS V14.01,2013-01-20 22:29:00,
2013-01-20 16:34:00,9.1,3.4,30.43,WNW,291,20.0,20.0,77,0.00,,---,0.00,35.00,VWS V14.01,2013-01-20 22:34:00,
2013-01-20 16:39:00,9.1,2.8,30.43,West,276,18.0,21.0,75,0.00,,---,0.00,25.00,VWS V14.01,2013-01-20 22:39:00,
2013-01-20 16:44:00,9.0,2.7,30.42,NW,306,16.0,21.0,75,0.00,,---,0.00,26.00,VWS V14.01,2013-01-20 22:44:00,
2013-01-20 16:49:00,9.0,2.7,30.42,NW,306,16.0,17.0,75,0.00,,---,0.00,19.00,VWS V14.01,2013-01-20 22:49:00,
2013-01-20 16:54:00,8.8,2.5,30.42,WNW,294,14.0,19.0,75,0.00,,---,0.00,16.00,VWS V14.01,2013-01-20 22:54:00,
2013-01-20 16:59:00,8.7,2.4,30.42,WNW,287,15.0,19.0,75,0.00,,---,0.00,11.00,VWS V14.01,2013-01-20 22:59:00,
2013-01-20 17:04:00,8.8,2.8,30.42,NW,304,11.0,17.0,76,0.00,,---,0.00,7.00,VWS V14.01,2013-01-20 23:04:00,
2013-01-20 17:09:00,8.9,3.2,30.42,WNW,294,15.0,18.0,77,0.00,,---,0.00,0.00,VWS V14.01,2013-01-20 23:09:00,
2013-01-20 17:14:00,8.9,3.2,30.42,WNW,298,12.0,18.0,77,0.00,,---,0.00,0.00,VWS V14.01,2013-01-20 23:14:00,
2013-01-20 17:19:00,8.9,3.2,30.42,WNW,288,12.0,15.0,77,0.00,,---,0.00,0.00,VWS V14.01,2013-01-20 23:19:00,
2013-01-20 17:24:00,9.0,3.5,30.42,WNW,292,11.0,17.0,78,0.00,,---,0.00,0.00,VWS V14.01,2013-01-20 23:24:00,
2013-01-20 17:29:00,9.0,3.8,30.42,WNW,292,19.0,19.0,79,0.00,,---,0.00,0.00,VWS V14.01,2013-01-20 23:29:00,
2013-01-20 17:34:00,9.1,3.7,30.42,WNW,296,13.0,17.0,78,0.00,,---,0.00,0.00,VWS V14.01,2013-01-20 23:34:00,
2013-01-20 17:39:00,9.1,3.7,30.42,WNW,294,21.0,21.0,78,0.00,,---,0.00,0.00,VWS V14.01,2013-01-20 23:39:00,
2013-01-20 17:44:00,9.0,3.5,30.43,WNW,300,15.0,23.0,78,0.00,,---,0.00,0.00,VWS V14.01,2013-01-20 23:44:00,
2013-01-20 17:49:00,8.9,2.9,30.42,NW,304,23.0,24.0,76,0.00,,---,0.00,0.00,VWS V14.01,2013-01-20 23:49:00,
2013-01-20 17:54:00,8.6,2.3,30.42,WNW,300,20.0,26.0,75,0.00,,---,0.00,0.00,VWS V14.01,2013-01-20 23:54:00,
2013-01-20 17:59:00,8.5,1.3,30.42,NW,309,23.0,26.0,72,0.00,,---,0.00,0.00,VWS V14.01,2013-01-20 23:59:00,
2013-01-20 18:04:00,8.3,1.1,30.42,WNW,300,13.0,20.0,72,0.00,,---,0.00,0.00,VWS V14.01,2013-01-21 00:04:00,
2013-01-20 18:09:00,8.1,1.0,30.42,WNW,290,14.0,21.0,72,0.00,,---,0.00,0.00,VWS V14.01,2013-01-21 00:09:00,
2013-01-20 18:14:00,7.9,1.4,30.43,WNW,297,20.0,22.0,74,0.00,,---,0.00,0.00,VWS V14.01,2013-01-21 00:14:00,
2013-01-20 18:19:00,7.7,1.4,30.43,WNW,296,16.0,20.0,75,0.00,,---,0.00,0.00,VWS V14.01,2013-01-21 00:19:00,
2013-01-20 18:24:00,7.6,1.6,30.42,WNW,297,13.0,23.0,76,0.00,,---,0.00,0.00,VWS V14.01,2013-01-21 00:24:00,
2013-01-20 18:29:00,7.6,1.9,30.42,WNW,299,19.0,26.0,77,0.00,,---,0.00,0.00,VWS V14.01,2013-01-21 00:29:00,
2013-01-20 18:34:00,7.4,2.0,30.42,WNW,302,16.0,19.0,78,0.00,,---,0.00,0.00,VWS V14.01,2013-01-21 00:34:00,
2013-01-20 18:39:00,7.3,2.2,30.43,WNW,302,14.0,22.0,79,0.00,,---,0.00,0.00,VWS V14.01,2013-01-21 00:39:00,
2013-01-20 18:44:00,7.3,2.4,30.43,WNW,301,20.0,24.0,80,0.00,,---,0.00,0.00,VWS V14.01,2013-01-21 00:44:00,
2013-01-20 18:49:00,7.0,1.9,30.43,NW,307,25.0,26.0,79,0.00,,---,0.00,0.00,VWS V14.01,2013-01-21 00:49:00,
2013-01-20 18:54:00,6.6,2.0,30.43,WNW,303,16.0,26.0,81,0.00,,---,0.00,0.00,VWS V14.01,2013-01-21 00:54:00,
2013-01-20 18:59:00,6.2,1.6,30.42,WNW,294,16.0,26.0,81,0.00,,---,0.00,0.00,VWS V14.01,2013-01-21 00:59:00,
2013-01-20 19:04:00,6.0,1.4,30.42,WNW,303,15.0,18.0,81,0.00,,---,0.00,0.00,VWS V14.01,2013-01-21 01:04:00,
2013-01-20 19:09:00,5.8,1.2,30.42,WNW,299,13.0,19.0,81,0.00,,---,0.00,0.00,VWS V14.01,2013-01-21 01:09:00,
2013-01-20 19:14:00,5.6,1.0,30.43,WNW,296,10.0,19.0,81,0.00,,---,0.00,0.00,VWS V14.01,2013-01-21 01:14:00,
2013-01-20 19:19:00,5.5,0.9,30.42,WNW,302,14.0,16.0,81,0.00,,---,0.00,0.00,VWS V14.01,2013-01-21 01:19:00,
2013-01-20 19:24:00,5.5,1.2,30.42,NW,314,16.0,21.0,82,0.00,,---,0.00,0.00,VWS V14.01,2013-01-21 01:24:00,
2013-01-20 19:29:00,5.4,1.1,30.42,NW,307,18.0,21.0,82,0.00,,---,0.00,0.00,VWS V14.01,2013-01-21 01:29:00,
2013-01-20 19:34:00,5.3,1.0,30.42,NW,316,15.0,15.0,82,0.00,,---,0.00,0.00,VWS V14.01,2013-01-21 01:34:00,
2013-01-20 19:39:00,5.1,0.6,30.42,NW,309,10.0,20.0,81,0.00,,---,0.00,0.00,VWS V14.01,2013-01-21 01:39:00,
2013-01-20 19:44:00,4.9,0.4,30.42,NW,311,16.0,20.0,81,0.00,,---,0.00,0.00,VWS V14.01,2013-01-21 01:44:00,
2013-01-20 19:49:00,4.6,0.1,30.42,NW,321,11.0,15.0,81,0.00,,---,0.00,0.00,VWS V14.01,2013-01-21 01:49:00,
2013-01-20 19:54:00,4.4,-0.1,30.42,NW,310,10.0,15.0,81,0.00,,---,0.00,0.00,VWS V14.01,2013-01-21 01:54:00,
2013-01-20 19:59:00,4.3,-0.5,30.42,NW,310,13.0,15.0,80,0.00,,---,0.00,0.00,VWS V14.01,2013-01-21 01:59:00,
2013-01-20 20:04:00,4.2,-0.6,30.42,NW,317,9.0,11.0,80,0.00,,---,0.00,0.00,VWS V14.01,2013-01-21 02:04:00,
2013-01-20 20:09:00,4.1,-0.7,30.42,NW,306,12.0,13.0,80,0.00,,---,0.00,0.00,VWS V14.01,2013-01-21 02:09:00,
2013-01-20 20:14:00,4.0,-0.8,30.42,NW,322,10.0,15.0,80,0.00,,---,0.00,0.00,VWS V14.01,2013-01-21 02:14:00,
2013-01-20 20:19:00,4.0,-0.8,30.42,NW,311,9.0,11.0,80,0.00,,---,0.00,0.00,VWS V14.01,2013-01-21 02:19:00,
2013-01-20 20:24:00,3.9,-0.9,30.42,NW,306,10.0,12.0,80,0.00,,---,0.00,0.00,VWS V14.01,2013-01-21 02:24:00,
2013-01-20 20:30:00,3.8,-1.0,30.41,WNW,296,14.0,14.0,80,0.00,,---,0.00,0.00,VWS V14.01,2013-01-21 02:30:00,
2013-01-20 20:35:00,3.7,-1.3,30.41,NW,311,14.0,19.0,79,0.00,,---,0.00,0.00,VWS V14.01,2013-01-21 02:35:00,
2013-01-20 20:39:00,3.5,-1.8,30.41,NW,306,14.0,19.0,78,0.00,,---,0.00,0.00,VWS V14.01,2013-01-21 02:39:00,
2013-01-20 20:44:00,3.3,-2.0,30.41,NW,308,21.0,22.0,78,0.00,,---,0.00,0.00,VWS V14.01,2013-01-21 02:44:00,
2013-01-20 20:50:00,3.1,-2.5,30.41,WNW,302,15.0,18.0,77,0.00,,---,0.00,0.00,VWS V14.01,2013-01-21 02:50:00,
2013-01-20 20:55:00,2.9,-2.7,30.41,NW,310,16.0,19.0,77,0.00,,---,0.00,0.00,VWS V14.01,2013-01-21 02:55:00,
2013-01-20 21:00:00,2.8,-3.0,30.41,NW,317,19.0,24.0,76,0.00,,---,0.00,0.00,VWS V14.01,2013-01-21 03:00:00,
2013-01-20 21:05:00,2.8,-3.3,30.41,NW,313,12.0,24.0,75,0.00,,---,0.00,0.00,VWS V14.01,2013-01-21 03:05:00,
2013-01-20 21:10:00,2.5,-4.2,30.41,NW,315,24.0,29.0,73,0.00,,---,0.00,0.00,VWS V14.01,2013-01-21 03:10:00,
2013-01-20 21:15:00,2.3,-4.6,30.42,NW,323,23.0,29.0,72,0.00,,---,0.00,0.00,VWS V14.01,2013-01-21 03:15:00,
2013-01-20 21:20:00,2.2,-5.0,30.42,NW,314,17.0,28.0,71,0.00,,---,0.00,0.00,VWS V14.01,2013-01-21 03:20:00,
2013-01-20 21:25:00,2.0,-4.9,30.42,NW,314,18.0,28.0,72,0.00,,---,0.00,0.00,VWS V14.01,2013-01-21 03:25:00,
2013-01-20 21:30:00,1.8,-5.4,30.42,NW,304,17.0,28.0,71,0.00,,---,0.00,0.00,VWS V14.01,2013-01-21 03:30:00,
2013-01-20 21:35:00,1.6,-5.3,30.42,WNW,298,15.0,18.0,72,0.00,,---,0.00,0.00,VWS V14.01,2013-01-21 03:35:00,
2013-01-20 21:40:00,1.5,-5.4,30.42,WNW,289,18.0,22.0,72,0.00,,---,0.00,0.00,VWS V14.01,2013-01-21 03:40:00,
2013-01-20 21:45:00,1.3,-5.6,30.42,NW,309,18.0,22.0,72,0.00,,---,0.00,0.00,VWS V14.01,2013-01-21 03:45:00,
2013-01-20 21:50:00,1.2,-5.4,30.42,NW,313,12.0,16.0,73,0.00,,---,0.00,0.00,VWS V14.01,2013-01-21 03:50:00,
2013-01-20 21:55:00,1.1,-5.5,30.43,NW,323,9.0,22.0,73,0.00,,---,0.00,0.00,VWS V14.01,2013-01-21 03:55:00,
2013-01-20 22:00:00,1.0,-5.6,30.43,NW,317,14.0,22.0,73,0.00,,---,0.00,0.00,VWS V14.01,2013-01-21 04:00:00,
2013-01-20 22:05:00,0.8,-5.8,30.43,NW,320,25.0,25.0,73,0.00,,---,0.00,0.00,VWS V14.01,2013-01-21 04:05:00,
2013-01-20 22:10:00,0.6,-5.7,30.43,NW,319,18.0,25.0,74,0.00,,---,0.00,0.00,VWS V14.01,2013-01-21 04:10:00,
2013-01-20 22:15:00,0.4,-5.9,30.44,NW,307,20.0,28.0,74,0.00,,---,0.00,0.00,VWS V14.01,2013-01-21 04:15:00,
2013-01-20 22:20:00,0.3,-6.3,30.44,NW,311,18.0,22.0,73,0.00,,---,0.00,0.00,VWS V14.01,2013-01-21 04:20:00,
2013-01-20 22:25:00,0.1,-6.5,30.44,NW,323,15.0,24.0,73,0.00,,---,0.00,0.00,VWS V14.01,2013-01-21 04:25:00,
2013-01-20 22:30:00,0.1,-6.6,30.44,NW,309,18.0,24.0,73,0.00,,---,0.00,0.00,VWS V14.01,2013-01-21 04:30:00,
2013-01-20 22:35:00,-0.2,-6.8,30.44,NW,319,12.0,23.0,73,0.00,,---,0.00,0.00,VWS V14.01,2013-01-21 04:35:00,
2013-01-20 22:40:00,-0.4,-7.0,30.44,NW,307,16.0,23.0,73,0.00,,---,0.00,0.00,VWS V14.01,2013-01-21 04:40:00,
2013-01-20 22:45:00,-0.5,-7.3,30.44,NW,319,20.0,26.0,72,0.00,,---,0.00,0.00,VWS V14.01,2013-01-21 04:45:00,
2013-01-20 22:50:00,-0.7,-7.8,30.44,NNW,330,17.0,22.0,71,0.00,,---,0.00,0.00,VWS V14.01,2013-01-21 04:50:00,
2013-01-20 22:55:00,-0.8,-7.6,30.44,NW,311,22.0,22.0,72,0.00,,---,0.00,0.00,VWS V14.01,2013-01-21 04:55:00,
2013-01-20 23:00:00,-1.0,-7.8,30.44,NW,319,16.0,25.0,72,0.00,,---,0.00,0.00,VWS V14.01,2013-01-21 05:00:00,
2013-01-20 23:01:00,-1.0,-7.8,30.44,NW,312,17.0,25.0,72,0.00,,---,0.00,0.00,VWS V14.01,2013-01-21 05:01:00,
2013-01-20 23:02:00,-1.0,-7.8,30.44,NW,317,19.0,25.0,72,0.00,,---,0.00,0.00,VWS V14.01,2013-01-21 05:02:00,
2013-01-20 23:03:00,-1.0,-7.8,30.44,NW,322,14.0,25.0,72,0.00,,---,0.00,0.00,VWS V14.01,2013-01-21 05:03:00,
2013-01-20 23:08:00,-1.1,-7.9,30.44,NW,313,18.0,22.0,72,0.00,,---,0.00,0.00,VWS V14.01,2013-01-21 05:08:00,
2013-01-20 23:13:00,-1.2,-8.0,30.44,NW,317,16.0,23.0,72,0.00,,---,0.00,0.00,VWS V14.01,2013-01-21 05:13:00,
2013-01-20 23:18:00,-1.3,-8.1,30.44,NW,316,12.0,23.0,72,0.00,,---,0.00,0.00,VWS V14.01,2013-01-21 05:18:00,
2013-01-20 23:23:00,-1.4,-8.2,30.44,NW,317,20.0,23.0,72,0.00,,---,0.00,0.00,VWS V14.01,2013-01-21 05:23:00,
2013-01-20 23:28:00,-1.5,-8.3,30.44,NW,309,15.0,23.0,72,0.00,,---,0.00,0.00,VWS V14.01,2013-01-21 05:28:00,
2013-01-20 23:33:00,-1.6,-8.4,30.44,NW,309,16.0,23.0,72,0.00,,---,0.00,0.00,VWS V14.01,2013-01-21 05:33:00,
2013-01-20 23:38:00,-1.6,-8.4,30.44,NW,320,11.0,21.0,72,0.00,,---,0.00,0.00,VWS V14.01,2013-01-21 05:38:00,
2013-01-20 23:43:00,-1.7,-8.5,30.44,WNW,300,17.0,21.0,72,0.00,,---,0.00,0.00,VWS V14.01,2013-01-21 05:43:00,
2013-01-20 23:48:00,-1.8,-8.6,30.44,WNW,299,12.0,21.0,72,0.00,,---,0.00,0.00,VWS V14.01,2013-01-21 05:48:00,
2013-01-20 23:53:00,-1.9,-8.7,30.44,NW,316,13.0,18.0,72,0.00,,---,0.00,0.00,VWS V14.01,2013-01-21 05:53:00,
2013-01-20 23:58:00,-1.9,-8.4,30.44,WNW,300,13.0,18.0,73,0.00,,---,0.00,0.00,VWS V14.01,2013-01-21 05:58:00,